| time (UTC) | temp F | wind direction | speed knots | gust knots | rain 1hr in | rain 24hr in | rain mn in | humidity % | barometer mb |
| 20260506211534 | 46 | 218 | 0.0 | 2.6 | 0.00 | 0.14 | 0.14 | 91 | 1011.2 |
| 20260506210032 | 47 | 238 | 0.0 | 2.6 | 0.00 | 0.14 | 0.14 | 91 | 1011.1 |
| 20260506204529 | 48 | 0 | 0.9 | 3.5 | 0.00 | 0.15 | 0.14 | 90 | 1011.0 |
| 20260506203030 | 49 | 0 | 0.0 | 1.7 | 0.00 | 0.15 | 0.14 | 88 | 1010.9 |
| 20260506201531 | 49 | 0 | 0.9 | 3.5 | 0.00 | 0.15 | 0.14 | 87 | 1010.9 |
| 20260506200030 | 50 | 0 | 0.0 | 0.9 | 0.00 | 0.15 | 0.14 | 86 | 1010.8 |
| 20260506194530 | 51 | 0 | 0.0 | 0.9 | 0.00 | 0.15 | 0.14 | 84 | 1010.6 |
| 20260506193031 | 52 | 148 | 0.0 | 1.7 | 0.00 | 0.15 | 0.14 | 83 | 1010.4 |
| 20260506191528 | 52 | 29 | 0.0 | 1.7 | 0.00 | 0.15 | 0.14 | 82 | 1010.1 |
| 20260506190030 | 53 | 0 | 0.0 | 1.7 | 0.00 | 0.15 | 0.14 | 79 | 1010.0 |
| 20260506184531 | 54 | 352 | 0.0 | 1.7 | 0.00 | 0.15 | 0.14 | 78 | 1009.8 |
| 20260506183029 | 55 | 360 | 0.9 | 3.5 | 0.00 | 0.15 | 0.14 | 76 | 1009.6 |
| 20260506181530 | 56 | 234 | 0.0 | 2.6 | 0.00 | 0.15 | 0.14 | 73 | 1009.5 |
| 20260506180034 | 57 | 254 | 0.9 | 3.5 | 0.00 | 0.15 | 0.14 | 71 | 1009.2 |
| 20260506174528 | 57 | 271 | 2.6 | 6.1 | 0.00 | 0.15 | 0.14 | 71 | 1009.0 |
| 20260506173034 | 56 | 232 | 3.5 | 11.3 | 0.00 | 0.15 | 0.14 | 70 | 1008.7 |
| 20260506171532 | 57 | 317 | 2.6 | 8.7 | 0.00 | 0.15 | 0.14 | 70 | 1008.6 |
| 20260506170028 | 57 | 263 | 2.6 | 7.8 | 0.00 | 0.15 | 0.14 | 70 | 1008.5 |
| 20260506164529 | 56 | 310 | 1.7 | 8.7 | 0.00 | 0.17 | 0.14 | 73 | 1008.5 |
| 20260506163050 | 55 | 251 | 3.5 | 7.0 | 0.00 | 0.17 | 0.14 | 77 | 1008.6 |
| 20260506161527 | 53 | 207 | 3.5 | 9.6 | 0.00 | 0.17 | 0.14 | 80 | 1008.8 |
| 20260506160031 | 54 | 201 | 0.9 | 7.0 | 0.00 | 0.17 | 0.14 | 80 | 1008.8 |
| 20260506154532 | 54 | 227 | 1.7 | 6.1 | 0.00 | 0.17 | 0.14 | 80 | 1008.9 |
| 20260506153028 | 53 | 196 | 2.6 | 7.0 | 0.00 | 0.17 | 0.14 | 83 | 1009.0 |
| 20260506151528 | 53 | 288 | 1.7 | 6.1 | 0.00 | 0.17 | 0.14 | 82 | 1008.8 |
| 20260506150029 | 53 | 273 | 2.6 | 6.1 | 0.00 | 0.17 | 0.14 | 82 | 1009.0 |
| 20260506144530 | 53 | 272 | 1.7 | 5.2 | 0.00 | 0.17 | 0.14 | 83 | 1008.8 |
| 20260506143035 | 53 | 263 | 1.7 | 5.2 | 0.00 | 0.17 | 0.14 | 85 | 1008.7 |
| 20260506141536 | 53 | 214 | 1.7 | 4.3 | 0.00 | 0.17 | 0.14 | 85 | 1008.8 |
| 20260506140028 | 53 | 223 | 1.7 | 5.2 | 0.00 | 0.17 | 0.14 | 85 | 1008.7 |
| 20260506134527 | 53 | 138 | 0.0 | 3.5 | 0.00 | 0.17 | 0.14 | 87 | 1008.6 |
| 20260506133030 | 52 | 279 | 2.6 | 9.6 | 0.00 | 0.17 | 0.14 | 85 | 1008.6 |
| 20260506131530 | 52 | 240 | 2.6 | 6.1 | 0.00 | 0.17 | 0.14 | 88 | 1008.4 |
| 20260506130030 | 52 | 300 | 1.7 | 6.1 | 0.00 | 0.17 | 0.14 | 89 | 1008.6 |
| 20260506124529 | 51 | 308 | 2.6 | 7.0 | 0.02 | 0.17 | 0.14 | 89 | 1008.5 |
| 20260506123033 | 51 | 188 | 2.6 | 7.0 | 0.08 | 0.17 | 0.14 | 90 | 1008.1 |
| 20260506121538 | 51 | 208 | 0.9 | 9.6 | 0.10 | 0.17 | 0.14 | 90 | 1007.8 |
| 20260506120030 | 51 | 296 | 3.5 | 10.4 | 0.09 | 0.16 | 0.13 | 89 | 1007.7 |
| 20260506114538 | 52 | 268 | 5.2 | 14.8 | 0.09 | 0.14 | 0.11 | 87 | 1007.5 |
| 20260506113028 | 54 | 236 | 1.7 | 5.2 | 0.02 | 0.07 | 0.04 | 88 | 1007.2 |
| 20260506111536 | 55 | 205 | 1.7 | 3.5 | 0.01 | 0.07 | 0.03 | 86 | 1007.0 |
| 20260506110031 | 55 | 231 | 0.9 | 2.6 | 0.00 | 0.06 | 0.03 | 85 | 1006.8 |
| 20260506104532 | 56 | 202 | 0.9 | 4.3 | 0.00 | 0.05 | 0.02 | 84 | 1006.7 |
| 20260506103029 | 56 | 221 | 0.9 | 2.6 | 0.00 | 0.05 | 0.02 | 85 | 1006.7 |
| 20260506101533 | 55 | 211 | 0.9 | 2.6 | 0.00 | 0.05 | 0.02 | 84 | 1006.7 |
| 20260506100030 | 55 | 209 | 1.7 | 2.6 | 0.00 | 0.05 | 0.02 | 85 | 1006.7 |
| 20260506094535 | 55 | 203 | 1.7 | 2.6 | 0.00 | 0.05 | 0.02 | 85 | 1006.6 |
| 20260506093031 | 54 | 0 | 0.0 | 0.0 | 0.00 | 0.04 | 0.01 | 84 | 1006.4 |
| 20260506091528 | 54 | 0 | 0.0 | 1.7 | 0.00 | 0.04 | 0.01 | 85 | 1006.6 |
| 20260506090027 | 54 | 194 | 0.0 | 2.6 | 0.00 | 0.04 | 0.01 | 86 | 1006.5 |
| 20260506084529 | 54 | 216 | 0.9 | 2.6 | 0.00 | 0.04 | 0.01 | 88 | 1006.4 |
| 20260506083032 | 54 | 216 | 0.0 | 2.6 | 0.00 | 0.04 | 0.01 | 89 | 1006.4 |
| 20260506081528 | 53 | 0 | 0.0 | 1.7 | 0.00 | 0.03 | 0.00 | 90 | 1006.4 |
| 20260506073029 | 52 | 0 | 0.0 | 0.0 | 0.00 | 0.03 | 0.00 | 90 | 1006.3 |
| 20260506071532 | 52 | 0 | 0.0 | 0.0 | 0.00 | 0.03 | 0.00 | 91 | 1006.4 |
| 20260506061533 | 49 | 241 | 0.0 | 1.7 | 0.00 | 0.03 | 0.00 | 93 | 1006.3 |
| 20260506044539 | 47 | 187 | 1.7 | 3.5 | 0.00 | 0.03 | 0.00 | 95 | 1006.4 |
| 20260506043027 | 47 | 200 | 0.9 | 2.6 | 0.00 | 0.03 | 0.00 | 96 | 1006.5 |
| 20260506041529 | 47 | 229 | 0.9 | 2.6 | 0.00 | 0.03 | 0.00 | 95 | 1006.6 |
| 20260506040050 | 47 | 272 | 0.0 | 1.7 | 0.00 | 0.03 | 0.00 | 95 | 1006.6 |
| 20260506034528 | 47 | 194 | 0.0 | 1.7 | 0.00 | 0.03 | 0.00 | 95 | 1006.7 |
| 20260506033030 | 47 | 194 | 0.9 | 1.7 | 0.00 | 0.03 | 0.00 | 95 | 1007.0 |
| 20260506031541 | 48 | 194 | 0.9 | 1.7 | 0.00 | 0.03 | 0.00 | 95 | 1007.2 |
| 20260506030028 | 48 | 0 | 0.0 | 1.7 | 0.00 | 0.03 | 0.00 | 95 | 1007.2 |
| 20260506024529 | 48 | 198 | 0.9 | 1.7 | 0.00 | 0.03 | 0.00 | 95 | 1007.4 |
| 20260506023032 | 49 | 0 | 0.9 | 2.6 | 0.00 | 0.03 | 0.00 | 95 | 1007.4 |
| 20260506021528 | 49 | 198 | 0.0 | 1.7 | 0.00 | 0.03 | 0.00 | 95 | 1007.7 |
| 20260506020029 | 49 | 0 | 0.0 | 1.7 | 0.00 | 0.03 | 0.00 | 94 | 1007.8 |
| 20260506014532 | 49 | 0 | 0.0 | 2.6 | 0.00 | 0.03 | 0.00 | 95 | 1007.8 |
| 20260506013029 | 49 | 204 | 0.9 | 3.5 | 0.00 | 0.03 | 0.00 | 94 | 1008.1 |
| 20260506011530 | 50 | 0 | 0.0 | 1.7 | 0.00 | 0.03 | 0.00 | 95 | 1008.2 |
| 20260506010030 | 50 | 0 | 0.0 | 2.6 | 0.00 | 0.03 | 0.00 | 94 | 1008.2 |
| 20260506004528 | 50 | 0 | 0.9 | 1.7 | 0.00 | 0.03 | 0.00 | 95 | 1008.4 |
| 20260506003028 | 50 | 194 | 0.0 | 1.7 | 0.00 | 0.03 | 0.00 | 94 | 1008.7 |
| 20260506001531 | 50 | 194 | 0.9 | 3.5 | 0.00 | 0.03 | 0.00 | 95 | 1008.9 |
| 20260506000032 | 50 | 0 | 0.0 | 1.7 | 0.00 | 0.03 | 0.00 | 94 | 1009.1 |
| 20260505234529 | 50 | 0 | 0.0 | 0.9 | 0.00 | 0.03 | 0.00 | 94 | 1009.4 |
| 20260505233029 | 50 | 0 | 0.9 | 2.6 | 0.00 | 0.03 | 0.00 | 94 | 1009.2 |
| 20260505231541 | 50 | 0 | 0.0 | 3.5 | 0.00 | 0.03 | 0.00 | 94 | 1009.3 |
| 20260505230033 | 50 | 0 | 0.9 | 2.6 | 0.00 | 0.03 | 0.00 | 94 | 1009.3 |
| 20260505224530 | 50 | 0 | 0.0 | 1.7 | 0.00 | 0.03 | 0.00 | 94 | 1009.4 |
| 20260505223032 | 51 | 0 | 0.0 | 1.7 | 0.00 | 0.03 | 0.00 | 93 | 1009.5 |
| 20260505221530 | 51 | 0 | 0.0 | 0.9 | 0.00 | 0.03 | 0.00 | 93 | 1009.4 |
| 20260505220035 | 51 | 214 | 0.0 | 0.9 | 0.00 | 0.03 | 0.00 | 93 | 1009.5 |
| 20260505214535 | 51 | 0 | 0.0 | 1.7 | 0.01 | 0.03 | 0.03 | 93 | 1009.7 |
| 20260505213033 | 51 | 0 | 0.0 | 1.7 | 0.01 | 0.03 | 0.03 | 93 | 1009.7 |